Flag for U.S.A. Weather past 2 weeks in Bowling Green, Kentucky, U.S.A.

Now
71 °F

Fog.


Feels Like: 63 °F
Forecast: 67 / 82 °F
Wind: No wind

Location: Glasgow Municipal Airport

Current Time: Jul 23, 2014 at 11:29:34 PM

Latest Report: Jul 23, 2014 at 10:55 PM


Visibility: 5 mi

Pressure: 30.01 "Hg

Humidity: 100%

Dew point: 71 °F

Location of Bowling GreenLocation

Historic Weather in Bowling Green — Graph

°F

Bowling Green temperature yesterday

Maximum temperature yesterday: 89 °F (at 6:55 PM)
Minimum temperature yesterday: 69 °F (at 5:15 AM)
Average temperature yesterday: 77 °F

Past Weeks' High & Low Weather Summary

 TemperatureHumidityPressure
High93 °F (Jul 13, 3:55 PM)100% (Jul 9, 7:55 AM)30.21 "Hg (Jul 9, 7:55 AM)
Low51 °F (Jul 16, 4:55 AM)28% (Jul 12, 4:55 PM)29.87 "Hg (Jul 14, 3:15 PM)
Average74 °F72%30.05 "Hg
* Reported Jul 8 10:55 PM — Jul 23 10:15 PM, Bowling Green, Weather by CustomWeather, © 2014

Note: Actual official high and low records may vary slightly from our data, if they occured in-between our weather recording intervals... More about our weather records

Advertising

Bowling Green weather history for previous 24 hours

 ConditionsComfort  
Time TempWeatherWind HumidityBarometerVisibility
10:15 PM
Jul 23
71 °FClear.No wind99%30.00 "Hg7 mi
9:55 PM72 °FPassing clouds.No wind99%30.00 "Hg10 mi
9:15 PM75 °FPassing clouds.5 mph81%30.01 "Hg10 mi
8:55 PM76 °FThundershowers. Broken clouds.5 mph79%30.00 "Hg10 mi
8:35 PM77 °FCloudy.5 mph76%30.00 "Hg10 mi
7:55 PM78 °FMostly cloudy.No wind74%29.99 "Hg10 mi
7:35 PM78 °FThunderstorms. Scattered clouds.3 mph73%29.98 "Hg10 mi
7:15 PM78 °FSunny.No wind72%29.96 "Hg10 mi
6:55 PM79 °FScattered clouds.No wind71%29.95 "Hg10 mi
6:35 PM79 °FScattered clouds.No wind69%29.95 "Hg10 mi
6:15 PM79 °FCloudy.5 mph68%29.95 "Hg10 mi
5:55 PM82 °FThunderstorms. Partly sunny.3 mph65%29.95 "Hg10 mi
5:35 PM83 °FThundershowers. Scattered clouds.No wind64%29.94 "Hg10 mi
5:15 PM81 °FThundershowers. Scattered clouds.No wind67%29.95 "Hg10 mi
4:55 PM77 °FBroken clouds.No wind70%29.95 "Hg10 mi
4:35 PM76 °FThunderstorms. More clouds than sun.8 mph69%29.96 "Hg7 mi
3:55 PM90 °FThundershowers. Cloudy.7 mph49%29.94 "Hg10 mi
3:35 PM91 °FBroken clouds.3 mph48%29.96 "Hg10 mi
3:15 PM92 °FScattered clouds.8 mph46%29.97 "Hg10 mi
2:55 PM92 °FScattered clouds.9 mph46%29.96 "Hg10 mi
2:15 PM91 °FScattered clouds.8 mph47%29.97 "Hg10 mi
1:55 PM91 °FScattered clouds.7 mph46%29.98 "Hg10 mi
1:15 PM89 °FSunny.9 mph50%30.01 "Hg10 mi
12:55 PM89 °FSunny.7 mph53%30.02 "Hg10 mi
12:15 PM87 °FSunny.7 mph57%30.06 "Hg10 mi
11:55 AM86 °FSunny.3 mph57%30.06 "Hg10 mi
11:35 AM86 °FThundershowers. Sunny.9 mph58%30.08 "Hg10 mi
11:15 AM84 °FScattered clouds.7 mph62%30.09 "Hg10 mi
10:55 AM84 °FBroken clouds.7 mph65%30.10 "Hg10 mi
10:15 AM84 °FPartly sunny.7 mph62%30.11 "Hg10 mi
9:55 AM83 °FSunny.5 mph66%30.10 "Hg10 mi
9:35 AM82 °FSunny.5 mph70%30.09 "Hg10 mi
9:15 AM81 °FSunny.3 mph73%30.10 "Hg10 mi
8:55 AM79 °FScattered clouds.No wind77%30.09 "Hg10 mi
8:15 AM77 °FScattered clouds.5 mph82%30.10 "Hg10 mi
6:15 AM70 °FFog.No wind100%30.06 "Hg3 mi
4:55 AM71 °FClear.No wind100%30.05 "Hg7 mi
4:15 AM71 °FClear.No wind100%30.05 "Hg7 mi
3:55 AM71 °FClear.No wind100%30.05 "Hg7 mi
2:55 AM71 °FClear.No wind99%30.05 "Hg7 mi
12:55 AM74 °FClear.No wind84%30.07 "Hg10 mi
12:15 AM75 °FPassing clouds.No wind81%30.07 "Hg10 mi
11:55 PM
Jul 22
76 °FClear.No wind79%30.08 "Hg10 mi
11:15 PM77 °FPassing clouds.No wind75%30.08 "Hg10 mi
Weather by CustomWeather, © 2014

See weather overviewHow to use our weather pages